#timestamp,LO_Frequency,Hit,StdDev 
1670792415.9,286046999.4,N
1670792435.7,286046998.8,N
1670792455.5,286046998.1,N
1670792475.4,286046999.6,N
1670792495.2,286046999.5,N
1670792515.1,286046999.3,N
1670792516.0,286046999.3,N
1670792535.8,286046999.0,N
1670792555.6,286046999.1,N
1670792575.5,286046999.3,N
1670792595.3,286047001.0,N
1670792615.2,286046998.1,N
1670792635.9,286047000.6,N
1670792655.7,286047002.8,N
1670792675.6,286047001.2,N
1670792695.4,286047001.2,N
1670792715.3,286046998.8,N
1670792735.1,286046996.9,N
1670792755.8,286046997.1,N
1670792775.7,286046997.4,N
1670792795.5,286046997.2,N
1670792815.4,286046997.2,N
1670792835.2,286046996.8,N
1670792855.0,286046999.2,N
1670792855.9,286046999.2,N
1670792875.8,286046997.4,N
1670792895.6,286046996.8,N
1670792915.5,286046996.8,N
1670792935.3,286046996.8,N
1670792955.1,286046999.0,N
1670792975.9,286046998.2,N
1670792995.7,286046998.6,N
1670793015.5,286046998.5,N
1670793035.4,286046998.1,N
1670793055.2,286046998.4,N
1670793075.1,286046999.4,N
1670793106.0,286046999.4,E
1670793115.0,286047000.6,N
1670793115.9,286047000.6,P
1670793135.8,286046998.3,P
1670793155.6,286046998.5,N
1670793175.4,286046998.4,N
1670793195.3,286047000.9,N
1670793215.1,286047000.5,N
1670793235.8,286047000.4,N
1670793255.7,286047001.0,N
1670793275.5,286047000.7,N
1670793295.4,286047000.3,N
1670793315.2,286047000.4,N
1670793335.0,286047000.4,N
1670793335.9,286047000.4,N
1670793355.8,286046998.7,N
1670793375.6,286047001.1,N
1670793395.4,286046999.1,N
1670793415.3,286047000.2,N
1670793435.1,286047000.1,N
1670793455.9,286047000.9,N
1670793475.7,286047000.1,N
1670793495.5,286047000.7,N
1670793515.4,286047000.8,N
1670793535.2,286046999.6,N
1670793555.0,286046996.9,Y
1670793556.0,286046996.9,P
1670793575.8,286047001.2,N
1670793595.6,286046998.7,N
1670793615.5,286046998.9,N
1670793635.3,286046998.6,N
1670793655.1,286046999.0,N
1670793675.9,286046999.0,N
1670793695.7,286046996.5,Y
1670793715.6,286046999.2,P
1670793735.4,286046999.2,P
1670793755.2,286046998.9,P
1670793775.1,286046998.8,Y
1670793776.0,286046998.8,P
1670793795.8,286047000.5,P
1670793815.7,286046999.7,N
1670793835.5,286047000.5,N
1670793855.3,286046998.6,N
1670793875.2,286047001.2,N
1670793895.0,286046998.6,N
1670793895.9,286046998.6,N
1670793915.8,286046998.9,N
1670793935.6,286046998.5,N
1670793955.4,286047000.9,N
1670793975.3,286047000.9,N
1670793995.1,286047000.7,N
1670794015.8,286047002.7,N
1670794035.7,286047002.3,N
1670794055.5,286047002.0,N
1670794075.4,286047001.4,N
1670794095.2,286047001.9,N
1670794115.0,286047003.8,N
1670794115.9,286047003.8,N
1670794135.8,286047003.1,N
1670794155.6,286047003.1,N
1670794175.5,286047004.1,N
1670794195.3,286047003.6,N
1670794215.1,286047005.3,N
1670794235.9,286047006.0,N
1670794255.7,286047003.1,N
1670794275.5,286047003.9,N
1670794295.4,286047001.5,N
1670794315.2,286046999.7,N
1670794335.1,286046999.8,N
1670794336.0,286046999.8,N
1670794355.8,286047000.3,N
1670794375.6,286047002.7,N
1670794395.5,286047000.6,N
1670794415.3,286046999.9,N
1670794435.2,286047000.1,N
1670794455.9,286047002.2,N
1670794475.7,286047001.5,N
1670794495.6,286047004.0,N
1670794515.4,286047001.6,N
1670794535.2,286047004.4,N
1670794555.1,286047003.9,N
1670794556.0,286047003.9,N
1670794575.8,286047001.7,N
1670794595.7,286047004.0,N
1670794615.5,286047004.0,N
1670794635.3,286047003.9,N
1670794655.2,286047002.5,N
1670794675.0,286047002.7,N
1670794675.9,286047002.7,N
1670794695.7,286047001.0,N
1670794715.6,286047002.0,N
1670794735.4,286047002.5,N
1670794755.3,286047000.0,N
1670794775.1,286047002.2,N
1670794776.0,286047002.2,N
1670794795.8,286047001.8,N
1670794815.7,286047002.1,N
1670794835.5,286047002.6,N
1670794855.3,286047002.6,N
1670794875.2,286047002.2,N
1670794895.0,286047002.8,N
1670794895.9,286047002.8,N
1670794915.8,286046999.7,N
1670794935.6,286047000.6,N
1670794955.4,286047001.7,N
1670794975.3,286047004.0,Y
1670794995.1,286047001.1,P
1670795015.9,286047001.2,N
1670795035.7,286046998.2,P
1670795055.5,286047000.6,N
1670795075.4,286046998.6,N
1670795095.2,286046999.3,N
1670795115.0,286046997.0,N
1670795116.0,286046997.0,N
1670795135.8,286046996.5,N
1670795155.6,286046999.5,N
1670795175.5,286046999.0,N
1670795195.3,286046998.6,N
1670795215.1,286046999.0,N
1670795235.9,286046996.9,N
1670795255.7,286046998.8,N
1670795275.6,286046999.2,N
1670795295.4,286046999.4,N
1670795315.2,286046998.9,N
1670795335.1,286046998.1,N
1670795336.0,286046998.1,N
1670795355.8,286046998.7,N
1670795375.6,286046997.2,N
1670795395.5,286046999.2,N
1670795415.3,286046998.3,N
1670795435.2,286046996.5,N
1670795455.9,286046999.3,N
1670795475.7,286047000.8,N
1670795495.6,286046998.7,N
1670795515.4,286046999.6,N
1670795535.2,286046997.1,N
1670795555.1,286046999.5,N
1670795556.0,286046999.5,N
1670795575.8,286046996.9,N
1670795595.7,286046999.2,N
1670795615.5,286046999.6,N
1670795635.3,286046999.5,N
1670795655.2,286046998.3,N
1670795675.0,286047000.7,N
1670795675.9,286047000.7,N
1670795695.8,286047000.3,N
1670795715.6,286046999.1,N
1670795735.4,286046999.6,N
1670795755.3,286046997.6,N
1670795775.1,286046997.6,N
1670795795.9,286046996.5,Y
1670795815.7,286047000.9,P
1670795835.5,286047000.9,N
1670795855.4,286047000.4,N
1670795875.2,286047000.6,N
1670795895.0,286047000.8,N
1670795895.9,286047000.8,N
1670795915.8,286046998.4,N
1670795935.6,286046999.9,N
1670795955.5,286047000.5,N
1670795975.3,286047000.4,N
1670795995.1,286047000.0,N
